Yakima, WA

6:37 PM PDT on June 25, 2017 (GMT -0700)
Yakima Air Term-McAllister

Weather History for KYKM - July, 2014

Change the Weather History Date:

Saturday, July 19, 2014

  Actual Average Record
Temperature  
Mean Temperature 78 °F 72 °F  
Max Temperature 94 °F 89 °F 104 °F (1979)
Min Temperature 62 °F 54 °F 43 °F (1962)
Degree Days  
Heating Degree Days 0 1  
Month to date heating degree days 0 19  
Since 1 June heating degree days 30 117  
Since 1 July heating degree days 0 19  
Cooling Degree Days 13 7  
Month to date cooling degree days 295 106  
Year to date cooling degree days 420 191  
Since 1 June cooling degree days 397 171  
Growing Degree Days 28 (Base 50)    
Moisture  
Dew Point 53 °F    
Average Humidity 45    
Maximum Humidity 67    
Minimum Humidity 23    
Precipitation  
Precipitation 0.00 in 0.00 in 0.46 in (2004)
Month to date precipitation T 0.15  
Year to date precipitation 3.00 4.44  
Snow  
Snow 0.00 in 0.00 in 0.00 in (2002)
Month to date snowfall 0.0 0.0  
Year to date snowfall 19.9 8.6  
Since 1 July snowfall 0.0 0.0  
Snow Depth 0.00 in    
Sea Level Pressure  
Sea Level Pressure 29.87 in    
Wind  
Wind Speed 11 mph (West)    
Max Wind Speed 29 mph    
Max Gust Speed 42 mph    
Visibility 10 miles    
Events      
T = Trace of Precipitation, MM = Missing Value Source: NWS Daily Summary

Daily Weather History Graph

Daily Weather History Graph

Search for Another Location

Airport or City:

Trip Planner

Search our weather history database for the weather conditions in past years. The results will help you decide how hot, cold, wet, or windy it might be!

Date:

Astronomy

Jul. 19, 2014 Rise Set
Actual Time 5:28 AM PDT 8:48 PM PDT
Civil Twilight 4:51 AM PDT 9:25 PM PDT
Nautical Twilight 4:02 AM PDT 10:13 PM PDT
Astronomical Twilight 3:00 AM PDT 11:14 PM PDT
Moon 12:17 AM PDT (7/19) 2:26 PM PDT (7/19)
Length of Visible Light 16h 33m
Length of Day
15h 20m
Last Quarter, 43% of the Moon is Illuminated
Jul 19
Last Quarter
Jul 26
New
Aug 3
First Quarter
Aug 10
Full
Aug 17
Last Quarter

Hourly Weather History & Observations

Time (PDT) Temp. Heat Index Dew Point Humidity Pressure Visibility Wind Dir Wind Speed Gust Speed Precip Events Conditions
12:53 AM 73.9 °F - 51.1 °F 45% 29.91 in 10.0 mi North 8.1 mph - N/A   Clear
1:53 AM 72.0 °F - 52.0 °F 49% 29.91 in 10.0 mi NW 6.9 mph - N/A   Clear
2:53 AM 69.1 °F - 52.0 °F 54% 29.91 in 10.0 mi West 4.6 mph - N/A   Clear
3:53 AM 66.9 °F - 53.1 °F 61% 29.91 in 10.0 mi WNW 5.8 mph - N/A   Clear
4:53 AM 63.0 °F - 52.0 °F 67% 29.91 in 10.0 mi West 6.9 mph - N/A   Clear
5:53 AM 69.1 °F - 52.0 °F 54% 29.91 in 10.0 mi North 9.2 mph - N/A   Clear
6:53 AM 70.0 °F - 54.0 °F 57% 29.93 in 10.0 mi WSW 4.6 mph - 0.00 in   Clear
7:53 AM 77.0 °F - 52.0 °F 42% 29.93 in 10.0 mi WNW 3.5 mph - 0.00 in   Clear
8:53 AM 80.1 °F - 52.0 °F 38% 29.92 in 10.0 mi South 4.6 mph - N/A   Clear
9:53 AM 82.9 °F - 51.1 °F 33% 29.91 in 10.0 mi East 5.8 mph - N/A   Clear
10:53 AM 86.0 °F - 52.0 °F 31% 29.90 in 10.0 mi Variable 4.6 mph - N/A   Clear
11:53 AM 88.0 °F - 52.0 °F 29% 29.89 in 10.0 mi East 5.8 mph - N/A   Clear
12:53 PM 91.0 °F - 52.0 °F 26% 29.86 in 10.0 mi SE 5.8 mph - N/A   Clear
1:53 PM 91.9 °F - 51.1 °F 25% 29.85 in 10.0 mi West 20.7 mph 28.8 mph N/A   Scattered Clouds
2:53 PM 91.9 °F - 48.9 °F 23% 29.84 in 10.0 mi WSW 17.3 mph 21.9 mph N/A   Scattered Clouds
3:53 PM 91.0 °F - 51.1 °F 25% 29.83 in 10.0 mi West 25.3 mph 32.2 mph N/A   Clear
4:53 PM 90.0 °F 87.5 °F 53.1 °F 28% 29.83 in 10.0 mi West 24.2 mph 33.4 mph N/A   Scattered Clouds
5:53 PM 84.9 °F - 52.0 °F 32% 29.82 in 10.0 mi West 19.6 mph 36.8 mph N/A   Partly Cloudy
6:53 PM 82.9 °F 81.9 °F 54.0 °F 37% 29.82 in 10.0 mi West 24.2 mph 32.2 mph N/A   Partly Cloudy
7:53 PM 82.4 °F 81.7 °F 55.4 °F 39% 29.85 in 10.0 mi West 20.7 mph 29.9 mph N/A   Scattered Clouds
8:53 PM 80.1 °F 80.1 °F 55.0 °F 42% 29.82 in 10.0 mi WNW 18.4 mph 31.1 mph N/A   Partly Cloudy
9:53 PM 79.0 °F - 54.0 °F 42% 29.83 in 10.0 mi WNW 11.5 mph 21.9 mph N/A   Clear
10:53 PM 73.9 °F - 54.0 °F 50% 29.82 in 10.0 mi SSW 5.8 mph - N/A   Clear
11:53 PM 72.0 °F - 54.0 °F 53% 29.81 in 10.0 mi Calm Calm - N/A   Clear